Location: Azul
(36.7830°S, 59.8500°W)
Time: 01:15:52
(UTC-03:00)

First-Move - Pass Details

Date: 23 October 2021
Orbit: 575 x 664 km, 97.6° (Epoch: 30 November)

Event Time Altitude Azimuth Distance (km) Brightness Sun altitude
Rises 05:05:05 0° 2° (N) 2,891 ? -12.0°
Reaches altitude 10° 05:07:16 10° 357° (N) 2,008 ? -11.6°
Maximum altitude 05:11:34 54° 280° (W) 793 ? -10.8°
Drops below altitude 10° 05:16:02 10° 202° (SSW) 2,087 ? -10.0°
Sets 05:18:21 0° 197° (SSW) 3,017 ? -9.6°
